When you browse on this site, cookies collect data to enhance your experience and personalize the content and advertising you see.
Visit our Privacy Policy to learn more. By continuing to use the site, you agree to this use of cookies and data.
  • In Hungary
  • List of Countries
  • For 7 days
  • Water Temperature
  • Satellite Maps
  • Weather Map
  • News
  • Weather Widgets
  • user-avatar
    Login

    Hourly Weather York

    Today, 16 January, Wednesday

    Time Temperature Precipitation Wind Pressure Humidity
    00:00 +8°C° 0 mm 5 mps 753 mmHg 82%
    01:00 +7°C° 0 mm 5 mps 752 mmHg 83%
    02:00 +7°C° 0 mm 5 mps 752 mmHg 84%
    03:00 +7°C° 0 mm 5 mps 751 mmHg 85%
    04:00 +7°C° 0 mm 5 mps 750 mmHg 85%
    05:00 +7°C° 0 mm 5 mps 749 mmHg 86%
    06:00 +6°C° 0 mm 5 mps 748 mmHg 86%
    07:00 +6°C° 0 mm 5 mps 748 mmHg 85%
    08:00 +7°C° 0 mm 6 mps 747 mmHg 84%
    09:00 +7°C° 0 mm 6 mps 747 mmHg 83%
    10:00 +7°C° 0.4 mm 6 mps 747 mmHg 82%
    11:00 +7°C° 0.4 mm 6 mps 746 mmHg 81%
    12:00 +7°C° 0.4 mm 6 mps 746 mmHg 80%
    13:00 +5°C° 0.1 mm 6 mps 746 mmHg 76%
    14:00 +5°C° 0.1 mm 6 mps 746 mmHg 73%
    15:00 +6°C° 0.1 mm 5 mps 746 mmHg 70%
    16:00 +5°C° 0 mm 5 mps 746 mmHg 72%
    17:00 +3°C° 0 mm 5 mps 746 mmHg 75%
    18:00 +3°C° 0 mm 4 mps 746 mmHg 77%
    19:00 +3°C° 0 mm 4 mps 747 mmHg 79%
    20:00 +3°C° 0 mm 4 mps 747 mmHg 82%
    21:00 +2°C° 0 mm 3 mps 747 mmHg 84%
    22:00 +2°C° 0 mm 3 mps 747 mmHg 84%
    23:00 +2°C° 0 mm 3 mps 748 mmHg 84%

    Tomorrow, 17 January, Thursday

    Time Temperature Precipitation Wind Pressure Humidity
    00:00 +2°C° 0 mm 3 mps 748 mmHg 84%
    01:00 +1°C° 0 mm 4 mps 749 mmHg 84%
    02:00 +1°C° 0 mm 4 mps 750 mmHg 84%
    03:00 +1°C° 0 mm 5 mps 751 mmHg 84%
    04:00 0°C° 0 mm 5 mps 752 mmHg 79%
    05:00 -1°C° 0 mm 6 mps 753 mmHg 74%
    06:00 -1°C° 0 mm 6 mps 754 mmHg 69%
    07:00 -2°C° 0 mm 6 mps 755 mmHg 68%
    08:00 -2°C° 0 mm 6 mps 756 mmHg 68%
    09:00 -2°C° 0 mm 5 mps 757 mmHg 67%
    10:00 -2°C° 0 mm 6 mps 757 mmHg 63%
    11:00 -1°C° 0 mm 6 mps 758 mmHg 58%
    12:00 +1°C° 0 mm 6 mps 759 mmHg 54%
    13:00 +1°C° 0 mm 6 mps 759 mmHg 56%
    14:00 +1°C° 0 mm 5 mps 759 mmHg 59%
    15:00 +1°C° 0 mm 4 mps 760 mmHg 62%
    16:00 +1°C° 0 mm 3 mps 760 mmHg 65%
    17:00 0°C° 0 mm 3 mps 761 mmHg 68%
    18:00 0°C° 0 mm 3 mps 761 mmHg 71%
    19:00 +1°C° 0 mm 2 mps 761 mmHg 71%
    20:00 -1°C° 0 mm 2 mps 761 mmHg 71%
    21:00 -1°C° 0 mm 2 mps 762 mmHg 72%
    22:00 +1°C° 0 mm 1 mps 762 mmHg 70%
    23:00 +1°C° 0 mm 1 mps 761 mmHg 69%

    Day after tomorrow, 18 January, Friday

    Time Temperature Precipitation Wind Pressure Humidity
    00:00 +1°C° 0 mm 1 mps 761 mmHg 68%
    01:00 +1°C° 0 mm 1 mps 761 mmHg 69%
    02:00 -1°C° 0 mm 2 mps 761 mmHg 69%
    03:00 -1°C° 0 mm 2 mps 760 mmHg 69%
    04:00 -1°C° 0 mm 3 mps 760 mmHg 69%
    05:00 -1°C° 0 mm 3 mps 760 mmHg 68%
    06:00 -1°C° 0 mm 3 mps 759 mmHg 67%
    07:00 -2°C° 0 mm 4 mps 759 mmHg 66%
    08:00 -2°C° 0 mm 4 mps 758 mmHg 65%
    09:00 -2°C° 0 mm 4 mps 758 mmHg 65%
    10:00 -1°C° 0.1 mm 5 mps 757 mmHg 66%
    11:00 0°C° 0.1 mm 5 mps 757 mmHg 68%
    12:00 -1°C° 0.1 mm 6 mps 756 mmHg 70%
    13:00 -1°C° 1.1 mm 6 mps 756 mmHg 76%
    14:00 0°C° 1.1 mm 5 mps 755 mmHg 81%
    15:00 +1°C° 1.1 mm 5 mps 754 mmHg 87%
    16:00 +1°C° 1.2 mm 5 mps 754 mmHg 89%
    17:00 +1°C° 1.2 mm 5 mps 754 mmHg 91%
    18:00 +1°C° 1.2 mm 5 mps 754 mmHg 93%
    19:00 +1°C° 0.3 mm 5 mps 754 mmHg 94%
    20:00 +1°C° 0.3 mm 5 mps 754 mmHg 95%
    21:00 +1°C° 0.3 mm 4 mps 753 mmHg 96%
    22:00 +1°C° 0.1 mm 4 mps 753 mmHg 96%
    23:00 +1°C° 0.1 mm 4 mps 753 mmHg 97%

    19 January, Saturday

    Time Temperature Precipitation Wind Pressure Humidity
    00:00 +2°C° 0.1 mm 3 mps 753 mmHg 97%
    01:00 +2°C° 0.1 mm 3 mps 753 mmHg 97%
    02:00 +3°C° 0.1 mm 2 mps 753 mmHg 98%
    03:00 +3°C° 0.1 mm 2 mps 753 mmHg 98%
    04:00 +3°C° 0.1 mm 2 mps 753 mmHg 98%
    05:00 +4°C° 0.1 mm 1 mps 753 mmHg 98%
    06:00 +4°C° 0.1 mm 1 mps 753 mmHg 98%
    07:00 +4°C° 0.1 mm 1 mps 753 mmHg 98%
    08:00 +5°C° 0.1 mm 1 mps 753 mmHg 98%
    09:00 +5°C° 0.1 mm 1 mps 754 mmHg 98%
    10:00 +5°C° 0.2 mm 1 mps 754 mmHg 97%
    11:00 +5°C° 0.2 mm 2 mps 754 mmHg 97%
    12:00 +5°C° 0.2 mm 2 mps 755 mmHg 96%
    13:00 +4°C° 0.4 mm 3 mps 755 mmHg 96%
    14:00 +4°C° 0.4 mm 4 mps 755 mmHg 95%
    15:00 +4°C° 0.4 mm 4 mps 755 mmHg 95%
    16:00 +3°C° 0.3 mm 5 mps 756 mmHg 94%
    17:00 +3°C° 0.3 mm 5 mps 756 mmHg 93%
    18:00 +3°C° 0.3 mm 5 mps 757 mmHg 92%
    19:00 +3°C° 0.3 mm 5 mps 758 mmHg 91%
    20:00 +4°C° 0.3 mm 4 mps 758 mmHg 91%
    21:00 +4°C° 0.3 mm 4 mps 759 mmHg 90%
    22:00 +3°C° 0.1 mm 4 mps 759 mmHg 90%
    23:00 +3°C° 0.1 mm 4 mps 760 mmHg 90%

    20 January, Sunday

    Time Temperature Precipitation Wind Pressure Humidity
    00:00 +3°C° 0.1 mm 3 mps 760 mmHg 90%
    01:00 +3°C° 0 mm 3 mps 761 mmHg 90%
    02:00 +3°C° 0 mm 3 mps 761 mmHg 90%
    03:00 +3°C° 0 mm 3 mps 761 mmHg 90%
    04:00 +2°C° 0 mm 3 mps 762 mmHg 90%
    05:00 +2°C° 0 mm 3 mps 762 mmHg 90%
    06:00 +3°C° 0 mm 2 mps 762 mmHg 90%
    07:00 +3°C° 0 mm 2 mps 763 mmHg 90%
    08:00 +2°C° 0 mm 2 mps 764 mmHg 90%
    09:00 +2°C° 0 mm 2 mps 765 mmHg 90%
    10:00 +3°C° 0 mm 2 mps 765 mmHg 85%
    11:00 +4°C° 0 mm 2 mps 765 mmHg 81%
    12:00 +5°C° 0 mm 2 mps 766 mmHg 76%
    13:00 +6°C° 0 mm 1 mps 766 mmHg 77%
    14:00 +6°C° 0 mm 1 mps 766 mmHg 78%
    15:00 +6°C° 0 mm 1 mps 766 mmHg 79%
    16:00 +5°C° 0 mm 1 mps 766 mmHg 80%
    17:00 +4°C° 0 mm 1 mps 767 mmHg 82%
    18:00 +2°C° 0 mm 1 mps 767 mmHg 84%
    19:00 +2°C° 0 mm 1 mps 768 mmHg 83%
    20:00 +2°C° 0 mm 1 mps 768 mmHg 83%
    21:00 +1°C° 0 mm 0 mps 768 mmHg 82%
    22:00 0°C° 0 mm 0 mps 769 mmHg 82%
    23:00 0°C° 0 mm 0 mps 769 mmHg 82%

    21 January, Monday

    Time Temperature Precipitation Wind Pressure Humidity
    00:00 0°C° 0 mm 0 mps 769 mmHg 82%
    01:00 0°C° 0 mm 0 mps 769 mmHg 82%
    02:00 0°C° 0 mm 0 mps 768 mmHg 82%
    03:00 0°C° 0 mm 0 mps 768 mmHg 82%
    04:00 0°C° 0 mm 0 mps 768 mmHg 82%
    05:00 +1°C° 0 mm 1 mps 768 mmHg 82%
    06:00 +1°C° 0 mm 1 mps 767 mmHg 82%
    07:00 +1°C° 0 mm 1 mps 767 mmHg 82%
    08:00 -1°C° 0 mm 2 mps 767 mmHg 82%
    09:00 -1°C° 0 mm 2 mps 766 mmHg 82%
    10:00 0°C° 0 mm 3 mps 765 mmHg 77%
    11:00 +1°C° 0 mm 3 mps 765 mmHg 72%
    12:00 +1°C° 0 mm 4 mps 764 mmHg 68%
    13:00 +1°C° 0 mm 4 mps 763 mmHg 68%
    14:00 +1°C° 0 mm 4 mps 762 mmHg 68%
    15:00 +1°C° 0 mm 4 mps 761 mmHg 69%
    16:00 +1°C° 0 mm 5 mps 760 mmHg 72%
    17:00 +1°C° 0 mm 5 mps 758 mmHg 75%
    18:00 -1°C° 0 mm 6 mps 757 mmHg 78%
    19:00 +1°C° 0.2 mm 6 mps 756 mmHg 80%
    20:00 +1°C° 0.2 mm 6 mps 755 mmHg 82%
    21:00 +2°C° 0.2 mm 7 mps 755 mmHg 84%
    22:00 +2°C° 0.7 mm 5 mps 754 mmHg 85%
    23:00 +3°C° 0.7 mm 4 mps 753 mmHg 87%
    Show more